Snowfall_Accumulation
0.9 0.9 1.1 1.0 1.0 1.2 1.7 2.8 5.0 4.4 1.4 0.3 0.4 0.3 0.4 0.4 0.3 0.5 0.3 0.2 0.3 0.4 0.5 0.4 0.3 0.2 0.2 0.1 0.1 0.0 0.0 0.0 0.1 0.1 0.0 0.1 0.1 0.0
1.1 1.2 1.2 1.2 1.2 1.2 1.4 1.8 3.1 5.5 4.1 0.7 0.4 0.3 0.4 0.4 0.4 0.6 0.5 0.2 0.3 0.3 0.3 0.4 0.3 0.2 0.2 0.1 0.1 0.1 0.0 0.0 0.1 0.1 0.1 0.0 0.1 0.1
1.2 1.5 1.6 1.5 1.5 1.4 1.6 1.8 2.3 3.8 5.2 1.3 0.3 0.3 0.5 0.6 0.5 0.4 0.4 0.3 0.4 0.2 0.2 0.3 0.3 0.3 0.3 0.2 0.2 0.1 0.1 0.1 0.1 0.1 0.1 0.1 0.1 0.1
1.6 1.8 1.8 1.8 2.0 1.8 2.1 2.2 2.3 2.9 4.6 3.4 0.9 0.6 0.6 0.5 0.4 0.4 0.3 0.3 0.4 0.2 0.2 0.3 0.4 0.4 0.4 0.5 0.2 0.2 0.2 0.1 0.1 0.1 0.1 0.1 0.1 0.1
1.9 2.3 2.3 2.6 2.8 2.4 2.6 2.7 2.4 2.2 3.0 3.8 2.2 0.9 0.8 0.6 0.5 0.6 0.5 0.6 0.3 0.2 0.2 0.2 0.3 0.5 0.5 0.5 0.5 0.3 0.3 0.2 0.2 0.2 0.3 0.2 0.2 0.1
2.3 2.6 3.1 3.7 4.2 4.4 4.2 3.7 3.0 3.3 3.4 4.2 3.5 2.2 1.7 1.1 1.5 1.8 1.7 1.0 0.9 0.8 0.7 0.4 0.6 0.6 0.6 0.5 0.4 0.5 0.5 0.5 0.5 0.4 0.4 0.4 0.4 0.3
3.3 3.1 2.9 3.4 4.1 5.2 6.1 6.4 6.0 6.9 6.2 6.4 5.5 4.0 3.2 3.1 3.2 2.5 2.9 1.9 1.3 1.1 1.1 0.8 0.6 0.6 0.6 0.3 0.3 0.3 0.8 0.7 0.6 0.7 0.5 0.4 0.4 0.4
4.8 3.8 3.1 2.8 3.0 2.9 3.7 4.5 5.3 8.2 9.4 9.4 8.7 7.7 5.0 3.4 3.4 3.7 4.6 5.1 4.2 1.3 1.5 1.8 1.3 1.5 0.9 0.8 0.4 0.5 0.7 0.8 0.9 0.8 0.7 0.7 0.7 0.6
4.0 3.5 3.2 2.8 2.7 2.9 3.3 2.6 3.0 3.9 6.1 8.6 11.0 8.6 6.0 5.2 5.4 6.1 5.6 6.3 4.9 2.8 2.8 3.8 1.8 2.0 1.4 1.0 0.6 0.6 0.6 1.1 1.1 1.0 1.0 1.0 1.1 0.9
3.1 3.4 3.6 3.5 3.2 3.9 4.5 4.8 4.3 4.0 4.6 6.6 8.9 7.6 6.1 5.8 6.5 8.4 8.0 8.3 5.1 2.9 2.9 5.9 2.5 2.1 1.4 1.2 0.8 0.6 0.9 1.0 1.4 1.3 1.2 1.2 1.3 1.3
3.0 4.0 4.4 4.3 4.0 4.5 6.5 7.0 5.3 4.0 3.2 4.5 5.6 6.4 5.5 5.9 8.0 10.8 14.4 15.2 12.2 4.8 3.4 5.8 3.5 2.6 1.8 1.7 1.2 1.1 1.0 0.8 1.0 1.2 1.3 1.6 1.7 1.6
3.1 3.9 5.8 5.8 5.6 5.2 7.0 8.2 7.9 4.9 4.2 4.1 4.4 4.4 4.6 5.2 6.2 9.5 12.3 16.3 14.9 10.8 5.2 5.0 5.0 6.1 6.2 2.5 1.7 1.3 1.3 1.3 1.1 1.1 1.3 1.6 2.0 2.0
5.2 5.4 5.9 5.6 5.4 5.5 6.4 7.8 8.7 7.5 6.8 6.5 5.6 4.8 5.0 5.5 6.4 8.0 9.6 13.1 16.0 13.5 8.3 8.7 9.3 8.4 10.3 6.6 2.9 2.4 2.1 1.8 1.5 1.2 1.0 1.2 1.7 2.4
6.3 5.1 5.6 5.7 5.9 5.5 5.4 4.9 5.5 6.5 7.2 6.8 6.2 5.2 5.0 5.4 6.3 7.5 9.7 10.9 11.5 11.5 8.9 10.1 14.1 12.2 13.6 11.4 6.8 3.9 3.0 2.3 2.5 2.4 2.3 1.7 1.6 2.0
5.7 6.4 5.8 5.2 5.0 4.1 3.5 4.4 4.3 5.3 6.4 6.8 6.1 5.0 4.7 4.4 5.1 6.3 7.9 9.3 9.7 9.8 8.4 8.0 10.5 10.7 13.6 14.3 9.3 6.2 4.9 3.7 3.2 3.5 3.3 3.1 2.7 2.6
5.0 5.2 5.1 4.2 3.6 3.1 3.0 3.4 4.0 5.0 6.6 7.2 6.1 4.8 4.3 4.8 5.7 6.5 8.2 9.6 11.8 11.1 9.6 7.9 7.8 10.3 12.8 10.9 10.4 8.6 6.5 6.3 4.9 4.4 3.9 3.8 3.4 2.7
8.2 8.0 6.6 5.4 4.8 4.3 3.8 3.5 3.9 4.8 5.6 5.8 6.2 6.4 6.1 5.8 6.2 6.7 8.5 10.3 12.4 12.2 11.7 10.6 10.3 10.8 12.1 12.6 12.4 9.5 7.2 6.3 5.8 5.8 5.4 5.1 4.1 3.7
8.3 9.1 6.9 5.9 5.6 5.2 4.8 4.6 4.3 4.9 5.3 5.7 6.2 6.7 7.3 7.1 7.3 7.1 8.9 10.9 12.2 11.9 11.9 11.9 13.3 15.3 15.8 15.4 13.2 10.7 8.4 6.8 6.0 6.0 6.0 6.7 5.7 4.1
6.8 6.9 5.9 5.9 5.7 5.8 5.6 5.6 5.4 5.2 5.5 6.4 6.7 7.1 7.6 8.4 8.6 8.3 8.6 9.9 10.9 11.2 11.6 12.3 14.7 19.5 22.5 19.4 13.7 11.0 10.2 8.2 7.3 6.8 6.0 6.5 7.0 5.3
4.9 5.8 5.9 5.6 6.3 6.4 6.2 6.1 5.8 5.7 6.1 6.5 6.8 6.7 7.4 8.8 9.1 8.9 9.2 10.2 11.2 11.8 12.3 12.6 14.9 18.1 22.1 19.4 16.4 13.8 9.4 10.0 9.6 9.0 6.9 6.1 5.5 4.4
5.3 5.5 5.6 6.0 6.4 6.3 6.4 6.5 6.8 6.7 6.3 6.6 6.8 6.7 7.1 8.9 9.2 8.4 8.9 9.9 11.9 13.3 13.5 13.3 12.2 13.6 16.5 18.4 20.1 17.8 14.6 9.9 8.3 10.2 10.0 10.0 9.3 7.9
5.8 6.0 5.7 5.8 5.9 6.4 6.5 6.5 6.8 6.3 6.2 6.6 6.8 6.8 7.3 8.4 8.9 8.8 9.5 10.7 11.6 12.1 12.5 12.6 11.8 14.9 19.6 22.2 20.4 17.3 16.6 13.9 12.2 8.3 7.9 9.4 13.6 14.5
6.9 6.9 6.2 5.8 6.0 6.2 6.5 6.5 6.6 6.1 6.1 6.5 7.0 7.2 7.6 8.5 8.8 9.4 9.8 10.3 11.2 11.5 12.2 13.1 14.0 16.3 18.8 18.9 19.3 17.9 16.2 13.9 13.5 13.0 13.2 7.0 5.9 6.3